Location: Góry Miechowskie
(50.3599°N, 20.1803°E)
Time: 15:54:28
(UTC+00:00)

Meteor 1-11 - Pass Details

Date: 08 September 2024
Orbit: 841 x 884 km, 81.2° (Epoch: 08 October)

Event Time Altitude Azimuth Distance (km) Brightness Sun altitude
Rises 22:46:02 0° 351° (N) 3,474 8.4 -34.4°
Reaches altitude 10° 22:48:37 10° 358° (N) 2,538 7.5 -34.4°
Enters shadow 22:53:12 40° 46° (NE) 1,281 5.3 -34.3°
